Voltar ao catálogo

SOCRATES

AtivoCiênciaSSO
NORAD 39768·PAYLOAD·🇯🇵 Japan

Lançado May 24, 2014 de Tanegashima Space Center

Loading…

Próximas Passagens (próximas 24 horas)

TLE

AtualizadoSource: Space-Track

Época: Sep 14, 2026, 06:13 UTC

1 39768U 14029C   26257.25905182  .00001650  00000-0  15609-3 0  9999
2 39768  97.9150  11.4577 0007030  53.0333 307.1529 14.95052280667718

Acompanhe SOCRATES em tempo real com AllMySat

Download on the App Store